GW2805 Weather Reports


time (UTC)temp
F
wind
direction
speed
knots
gust
knots
rain 1hr
in
rain 24hr
in
rain mn
in
humidity
%
barometer
mb
20260503211010 64 0 3.5 11.3 0.00 0.00 0.00 61 1012.9
20260503210509 64 0 3.5 13.9 0.00 0.00 0.00 60 1012.9
20260503210009 64 0 7.0 13.9 0.00 0.00 0.00 60 1013.0
20260503205507 64 0 3.5 13.0 0.00 0.00 0.00 59 1013.0
20260503205008 64 0 4.3 10.4 0.00 0.00 0.00 59 1013.0
20260503204507 65 0 1.7 9.6 0.00 0.00 0.00 60 1013.0
20260503204007 64 0 5.2 9.6 0.00 0.00 0.00 60 1013.0
20260503203508 64 0 3.5 13.0 0.00 0.00 0.00 60 1013.0
20260503203006 64 0 4.3 13.0 0.00 0.00 0.00 61 1013.0
20260503202744 64 0 4.3 10.4 0.00 0.00 0.00 61 1013.2
20260503202008 63 0 6.1 10.4 0.00 0.00 0.00 62 1013.1
20260503201744 63 0 3.5 12.2 0.00 0.00 0.00 62 1013.2
20260503201006 63 0 4.3 12.2 0.00 0.00 0.00 61 1013.2
20260503200744 63 0 7.8 12.2 0.00 0.00 0.00 61 1013.2
20260503200006 63 0 5.2 9.6 0.00 0.00 0.00 60 1013.2
20260503195505 63 0 3.5 9.6 0.00 0.00 0.00 59 1013.1
20260503195006 63 0 4.3 9.6 0.00 0.00 0.00 60 1013.2
20260503194506 63 0 2.6 9.6 0.00 0.00 0.00 60 1013.2
20260503194004 63 0 5.2 10.4 0.00 0.00 0.00 59 1013.3
20260503193742 63 0 4.3 11.3 0.00 0.00 0.00 59 1013.3
20260503193003 63 0 5.2 11.3 0.00 0.00 0.00 59 1013.3
20260503192504 63 0 3.5 9.6 0.00 0.00 0.00 60 1013.3
20260503192005 63 0 3.5 9.6 0.00 0.00 0.00 60 1013.3
20260503191505 63 0 2.6 9.6 0.00 0.00 0.00 60 1013.3
20260503191006 63 0 3.5 9.6 0.00 0.00 0.00 60 1013.4
20260503190505 63 0 3.5 9.6 0.00 0.00 0.00 59 1013.4
20260503190004 64 0 4.3 7.8 0.00 0.00 0.00 58 1013.4
20260503185505 64 0 2.6 9.6 0.00 0.00 0.00 58 1013.3
20260503185006 63 0 5.2 9.6 0.00 0.00 0.00 60 1013.3
20260503184505 63 0 3.5 10.4 0.00 0.00 0.00 58 1013.4
20260503184005 63 0 4.3 10.4 0.00 0.00 0.00 60 1013.3
20260503183526 62 0 2.6 7.8 0.00 0.00 0.00 61 1013.3
20260503183517 62 0 4.3 7.8 0.00 0.00 0.00 61 1013.2
20260503182502 62 0 2.6 9.6 0.00 0.00 0.00 61 1013.4
20260503182004 62 0 4.3 10.4 0.00 0.00 0.00 60 1013.4
20260503181504 62 0 4.3 10.4 0.00 0.00 0.00 62 1013.2
20260503181002 62 0 4.3 7.8 0.00 0.00 0.00 62 1013.3
20260503180503 62 0 3.5 7.8 0.00 0.00 0.00 61 1013.2
20260503180240 62 0 3.5 12.2 0.00 0.00 0.00 61 1013.3
20260503175502 62 0 4.3 12.2 0.00 0.00 0.00 62 1013.2
20260503175003 61 0 0.9 6.1 0.00 0.00 0.00 65 1013.2
20260503174502 60 0 2.6 6.1 0.00 0.00 0.00 65 1013.2
20260503174003 61 0 1.7 4.3 0.00 0.00 0.00 67 1013.3
20260503173503 60 0 1.7 8.7 0.00 0.00 0.00 66 1013.2
20260503173002 59 0 1.7 8.7 0.00 0.00 0.00 68 1013.2
20260503172743 59 0 3.5 7.8 0.00 0.00 0.00 68 1013.3
20260503172002 60 0 2.6 6.1 0.00 0.00 0.00 69 1013.3
20260503171525 59 0 1.7 5.2 0.00 0.00 0.00 70 1013.3
20260503171515 59 0 1.7 4.3 0.00 0.00 0.00 69 1013.3
20260503170503 59 0 3.5 5.2 0.00 0.00 0.00 71 1013.4
20260503151000 55 0 0.9 3.5 0.00 0.00 0.00 82 1012.9
20260503150459 55 0 0.9 3.5 0.00 0.00 0.00 82 1012.7
20260503130957 54 0 0.0 0.9 0.00 0.00 0.00 81 1011.5
20260503130456 54 0 0.0 0.9 0.00 0.00 0.00 81 1011.5
20260503110757 55 0 0.0 1.7 0.00 0.00 0.00 77 1011.5
20260503110751 55 0 0.0 0.9 0.00 0.00 0.00 77 1011.6
20260503090450 55 0 0.0 4.3 0.00 0.00 0.00 76 1011.7
20260503081450 55 0 1.7 2.6 0.00 0.00 0.00 75 1012.1
20260503080949 55 0 0.9 4.3 0.00 0.00 0.00 75 1012.2
20260503080446 55 0 2.6 4.3 0.00 0.00 0.00 75 1012.3
20260503072447 55 0 1.7 3.5 0.00 0.00 0.00 75 1012.4
20260503071946 55 0 0.0 2.6 0.00 0.00 0.00 75 1012.4
20260503071724 55 0 0.9 2.6 0.00 0.00 0.00 75 1012.3
20260503070947 55 0 0.0 1.7 0.00 0.00 0.00 75 1012.3
20260503070727 55 0 0.0 2.6 0.00 0.00 0.00 75 1012.4
20260503054945 56 0 0.9 2.6 0.00 0.00 0.00 74 1012.8
20260503054445 56 0 0.0 1.7 0.00 0.00 0.00 74 1012.7
20260503053944 56 0 0.0 1.7 0.00 0.00 0.00 74 1012.7
20260503053445 56 0 0.0 2.6 0.00 0.00 0.00 74 1012.7
20260503052944 56 0 0.9 2.6 0.00 0.00 0.00 74 1012.7
20260503052445 56 0 0.9 2.6 0.00 0.00 0.00 74 1012.8
20260503051944 56 0 1.7 3.5 0.00 0.00 0.00 74 1012.8
20260503051443 56 0 0.9 4.3 0.00 0.00 0.00 74 1012.8
20260503050945 56 0 0.9 4.3 0.00 0.00 0.00 75 1012.7
20260503050444 56 0 1.7 4.3 0.00 0.00 0.00 74 1012.8
20260503045944 56 0 2.6 5.2 0.00 0.00 0.00 75 1012.8
20260503045723 56 0 1.7 5.2 0.00 0.00 0.00 75 1012.7
20260503044945 56 0 2.6 5.2 0.00 0.00 0.00 74 1012.7
20260503044443 56 0 1.7 4.3 0.00 0.00 0.00 74 1012.7
20260503043943 56 0 2.6 4.3 0.00 0.00 0.00 74 1012.6
20260503043443 56 0 1.7 3.5 0.00 0.00 0.00 74 1012.7
20260503042943 56 0 0.9 3.5 0.00 0.00 0.00 74 1012.6
20260503042443 56 0 0.9 3.5 0.00 0.00 0.00 73 1012.7
20260503041944 56 0 1.7 4.3 0.00 0.00 0.00 73 1012.6
20260503041819 56 0 1.7 5.2 0.00 0.00 0.00 73 1012.1
20260503041814 56 0 1.7 4.3 0.00 0.00 0.00 72 1012.4
20260503041531 56 0 0.9 4.3 0.00 0.00 0.00 72 1012.5
20260503041518 56 0 2.6 4.3 0.00 0.00 0.00 72 1012.6
20260503040349 56 0 0.0 3.5 0.00 0.00 0.00 72 1012.3
20260503040247 56 0 1.7 3.5 0.00 0.00 0.00 72 1012.2
20260503040145 56 0 0.9 4.3 0.00 0.00 0.00 72 1012.3
20260503034440 56 0 1.7 5.2 0.00 0.00 0.00 73 1012.1
20260503033940 56 0 2.6 5.2 0.00 0.00 0.00 72 1012.2
20260503033440 56 0 0.9 5.2 0.00 0.00 0.00 72 1012.1
20260503032940 57 0 1.7 4.3 0.00 0.00 0.00 72 1012.1
20260503032440 57 0 0.9 3.5 0.00 0.00 0.00 72 1012.1
20260503031939 57 0 0.9 4.3 0.00 0.00 0.00 72 1011.9
20260503031722 57 0 1.7 4.3 0.00 0.00 0.00 72 1012.0
20260503030939 57 0 0.0 6.1 0.00 0.00 0.00 72 1011.9
20260503030439 57 0 0.9 6.1 0.00 0.00 0.00 72 1011.8
20260503025939 57 0 2.6 5.2 0.00 0.00 0.00 71 1011.6
20260503025439 57 0 1.7 5.2 0.00 0.00 0.00 71 1011.7
20260503024939 57 0 0.9 5.2 0.00 0.00 0.00 71 1011.5
20260503024719 58 0 1.7 7.8 0.00 0.00 0.00 70 1011.5
20260503023938 58 0 1.7 7.8 0.00 0.00 0.00 69 1011.5
20260503023440 58 0 2.6 7.8 0.00 0.00 0.00 70 1011.4
20260503022939 58 0 1.7 6.1 0.00 0.00 0.00 69 1011.4
20260503022717 58 0 3.5 6.1 0.00 0.00 0.00 69 1011.4
20260503021940 58 0 0.9 5.2 0.00 0.00 0.00 69 1011.3
20260503021439 58 0 1.7 6.1 0.00 0.00 0.00 68 1011.3
20260503020939 59 0 3.5 7.8 0.00 0.00 0.00 68 1011.3
20260503020440 59 0 3.5 7.8 0.00 0.00 0.00 67 1011.4
20260503015939 59 0 2.6 10.4 0.00 0.00 0.00 67 1011.4
20260503015439 60 0 3.5 10.4 0.00 0.00 0.00 67 1011.4
20260503014939 60 0 2.6 7.8 0.00 0.00 0.00 67 1011.4
20260503014440 60 0 1.7 6.1 0.00 0.00 0.00 66 1011.4
20260503013939 60 0 1.7 6.1 0.00 0.00 0.00 66 1011.4
20260503013439 61 0 3.5 5.2 0.00 0.00 0.00 66 1011.5
20260503012938 61 0 1.7 6.1 0.00 0.00 0.00 67 1011.5
20260503012439 61 0 3.5 7.8 0.00 0.00 0.00 66 1011.5
20260503011938 62 0 3.5 7.8 0.00 0.00 0.00 65 1011.5
20260503011438 62 0 2.6 6.1 0.00 0.00 0.00 66 1011.5
20260503010937 62 0 2.6 6.1 0.00 0.00 0.00 66 1011.5
20260503010437 62 0 2.6 9.6 0.00 0.00 0.00 66 1011.5
20260503005937 62 0 3.5 9.6 0.00 0.00 0.00 65 1011.4
20260503005438 62 0 4.3 10.4 0.00 0.00 0.00 65 1011.4
20260503004937 63 0 4.3 10.4 0.00 0.00 0.00 65 1011.4
20260503004438 63 0 6.1 10.4 0.00 0.00 0.00 64 1011.5
20260503003937 64 0 3.5 8.7 0.00 0.00 0.00 64 1011.4
20260503003437 64 0 2.6 6.1 0.00 0.00 0.00 65 1011.4
20260503002936 64 0 2.6 6.1 0.00 0.00 0.00 65 1011.4
20260503002435 64 0 2.6 7.8 0.00 0.00 0.00 63 1011.5
20260503001935 64 0 1.7 7.8 0.00 0.00 0.00 65 1011.5
20260503001435 64 0 3.5 5.2 0.00 0.00 0.00 63 1011.5
20260503000935 65 0 1.7 6.1 0.00 0.00 0.00 64 1011.5
20260503000437 64 0 3.5 6.1 0.00 0.00 0.00 63 1011.5
20260502235935 65 0 2.6 6.1 0.00 0.00 0.00 62 1011.5
20260502235435 65 0 2.6 8.7 0.00 0.00 0.00 61 1011.6
20260502234935 64 0 1.7 8.7 0.00 0.00 0.00 63 1011.6
20260502234435 66 0 3.5 6.1 0.00 0.00 0.00 61 1011.5
20260502234215 66 0 2.6 8.7 0.00 0.00 0.00 61 1011.7
20260502233434 66 0 2.6 8.7 0.00 0.00 0.00 62 1011.6
20260502233214 66 0 1.7 7.8 0.00 0.00 0.00 61 1011.8
20260502232715 66 0 1.7 7.8 0.00 0.00 0.00 62 1011.6
20260502231933 66 0 1.7 6.1 0.00 0.00 0.00 62 1011.7
20260502231434 66 0 2.6 5.2 0.00 0.00 0.00 61 1011.8
20260502230933 66 0 2.6 5.2 0.00 0.00 0.00 62 1011.8
20260502230433 66 0 3.5 9.6 0.00 0.00 0.00 62 1012.0
20260502230241 66 0 1.7 6.1 0.00 0.00 0.00 62 1012.1
20260502225950 65 0 2.6 9.6 0.00 0.00 0.00 62 1012.0
20260502224934 66 0 3.5 6.1 0.00 0.00 0.00 62 1012.1
20260502224434 67 0 3.5 6.1 0.00 0.00 0.00 61 1012.2
20260502223935 67 0 0.9 7.8 0.00 0.00 0.00 61 1012.3
20260502223434 67 0 1.7 7.8 0.00 0.00 0.00 62 1012.4
20260502222933 67 0 2.6 4.3 0.00 0.00 0.00 61 1012.3
20260502222433 67 0 1.7 4.3 0.00 0.00 0.00 62 1012.3
20260502221932 66 0 2.6 5.2 0.00 0.00 0.00 63 1012.5
20260502221432 66 0 1.7 6.1 0.00 0.00 0.00 63 1012.6
20260502220932 65 0 2.6 6.1 0.00 0.00 0.00 63 1012.8
20260502220712 65 0 1.7 6.1 0.00 0.00 0.00 64 1012.8
20260502215931 65 0 3.5 6.1 0.00 0.00 0.00 63 1012.8
20260502215430 66 0 3.5 6.1 0.00 0.00 0.00 63 1012.9
20260502214931 66 0 1.7 5.2 0.00 0.00 0.00 63 1012.9
20260502214432 65 0 2.6 5.2 0.00 0.00 0.00 63 1013.0
20260502214212 66 0 3.5 5.2 0.00 0.00 0.00 63 1013.0
20260502213431 65 0 3.5 5.2 0.00 0.00 0.00 62 1013.0
20260502212931 65 0 1.7 5.2 0.00 0.00 0.00 64 1013.0
20260502212712 65 0 2.6 7.8 0.00 0.00 0.00 63 1013.1
20260502212213 66 0 4.3 7.8 0.00 0.00 0.00 62 1013.1
20260502211432 66 0 1.7 6.1 0.00 0.00 0.00 63 1013.2